EW1931 Weather Reports


time (UTC)temp
F
wind
direction
speed
knots
gust
knots
rain 1hr
in
rain 24hr
in
rain mn
in
humidity
%
barometer
mb
20260507050021 53 75 7.8 12.2 0.00 0.00 0.00 37 922.6
20260507044519 53 65 7.0 7.0 0.00 0.00 0.00 36 922.8
20260507043002 54 67 5.2 7.8 0.00 0.00 0.00 36 922.8
20260507041501 55 83 0.9 4.3 0.00 0.00 0.00 33 923.0
20260507040043 55 107 5.2 7.0 0.00 0.00 0.00 33 923.1
20260507034557 55 307 1.7 4.3 0.00 0.00 0.00 33 923.3
20260507033025 55 94 0.9 5.2 0.00 0.00 0.00 33 922.8
20260507031524 54 78 5.2 7.0 0.00 0.00 0.00 36 922.5
20260507030008 54 86 7.0 8.7 0.00 0.00 0.00 36 922.4
20260507024508 56 84 7.8 8.7 0.00 0.00 0.00 34 922.3
20260507023007 58 82 3.5 8.7 0.00 0.00 0.00 34 922.4
20260507021506 61 107 5.2 7.0 0.00 0.00 0.00 28 922.3
20260507020005 62 100 1.7 6.1 0.00 0.00 0.00 28 922.4
20260507014505 62 97 5.2 7.0 0.00 0.00 0.00 28 922.5
20260507013006 64 81 6.1 7.8 0.00 0.00 0.00 28 922.6
20260507011504 66 65 3.5 7.0 0.00 0.00 0.00 23 922.6
20260507010048 68 53 4.3 8.7 0.00 0.00 0.00 22 922.8
20260507004542 69 19 5.2 10.4 0.00 0.00 0.00 21 922.8
20260507003029 70 309 2.6 4.3 0.00 0.00 0.00 21 922.8
20260507001530 70 288 4.3 5.2 0.00 0.00 0.00 22 923.0
20260507000029 69 248 5.2 7.8 0.00 0.00 0.00 21 923.0
20260506234543 69 253 6.1 11.3 0.00 0.00 0.00 21 923.1
20260506233023 70 304 8.7 11.3 0.00 0.00 0.00 21 923.3
20260506231520 70 317 8.7 12.2 0.00 0.00 0.00 21 923.5
20260506230019 70 263 7.0 12.2 0.00 0.00 0.00 19 923.7
20260506224525 69 320 6.1 11.3 0.00 0.00 0.00 20 924.0
20260506223059 69 55 2.6 12.2 0.00 0.00 0.00 20 924.2
20260506221553 68 242 5.2 12.2 0.00 0.00 0.00 20 924.5
20260506220040 68 301 9.6 14.8 0.00 0.00 0.00 21 924.7
20260506214529 67 273 6.1 15.6 0.00 0.00 0.00 21 924.8
20260506213009 67 260 3.5 16.5 0.00 0.00 0.00 22 925.1
20260506211513 66 296 10.4 17.4 0.00 0.00 0.00 22 925.3
20260506210047 65 293 8.7 12.2 0.00 0.00 0.00 23 925.5
20260506204545 65 340 1.7 8.7 0.00 0.00 0.00 22 925.6
20260506203025 63 229 4.3 15.6 0.00 0.00 0.00 23 925.9
20260506201521 63 263 7.8 17.4 0.00 0.00 0.00 23 926.2
20260506200003 62 225 6.1 18.2 0.00 0.00 0.00 23 926.4
20260506194600 61 298 3.5 14.8 0.00 0.00 0.00 23 926.6
20260506193038 60 231 11.3 14.8 0.00 0.00 0.00 23 927.0
20260506191533 59 222 7.8 10.4 0.00 0.00 0.00 24 927.2
20260506190012 58 192 7.8 20.0 0.00 0.00 0.00 24 927.6
20260506184510 58 178 9.6 14.8 0.00 0.00 0.00 24 927.8
20260506183043 57 186 2.6 13.9 0.00 0.00 0.00 24 928.0
20260506181557 55 248 4.3 12.2 0.00 0.00 0.00 25 928.3
20260506180021 55 199 8.7 18.2 0.00 0.00 0.00 26 928.5
20260506174516 54 226 6.1 14.8 0.00 0.00 0.00 28 928.9
20260506173122 53 180 7.0 13.9 0.00 0.00 0.00 30 929.2
20260506171602 53 224 4.3 11.3 0.00 0.00 0.00 31 929.5
20260506170033 52 229 7.8 11.3 0.00 0.00 0.00 35 929.5
20260506164530 51 153 7.0 13.0 0.00 0.00 0.00 35 929.7
20260506163010 49 184 7.0 10.4 0.00 0.00 0.00 41 930.0
20260506161505 48 178 7.8 13.9 0.00 0.00 0.00 46 930.2
20260506160058 45 189 8.7 12.2 0.00 0.00 0.00 49 930.4
20260506154544 44 185 7.0 11.3 0.00 0.00 0.00 50 930.8
20260506153020 43 207 6.1 7.8 0.00 0.00 0.00 51 931.1
20260506151518 42 192 6.1 10.4 0.00 0.00 0.00 51 931.2
20260506144554 38 196 6.1 9.6 0.00 0.00 0.00 52 931.6
20260506143035 36 213 4.3 6.1 0.00 0.00 0.00 51 931.7
20260506141528 34 197 4.3 7.8 0.00 0.00 0.00 52 931.8
20260506140007 33 190 4.3 7.0 0.00 0.00 0.00 53 931.7
20260506134504 32 175 3.5 5.2 0.00 0.00 0.00 54 931.8
20260506133045 31 198 3.5 5.2 0.00 0.00 0.00 56 931.8
20260506131555 29 201 3.5 5.2 0.00 0.00 0.00 60 931.9
20260506130033 27 211 4.3 6.1 0.00 0.00 0.00 62 931.9
20260506124518 24 211 4.3 5.2 0.00 0.00 0.00 64 932.0
20260506123101 23 198 2.6 4.3 0.00 0.00 0.00 64 931.9
20260506123001 23 197 3.5 6.1 0.00 0.00 0.00 64 931.9
20260506121601 23 194 5.2 6.1 0.00 0.00 0.00 63 932.1
20260506120038 25 175 3.5 6.1 0.00 0.00 0.00 61 932.0
20260506114537 25 247 2.6 3.5 0.00 0.00 0.00 62 932.1
20260506113023 25 247 1.7 3.5 0.00 0.00 0.00 61 932.2
20260506111517 25 247 2.6 3.5 0.00 0.00 0.00 62 932.3
20260506110116 26 247 2.6 3.5 0.00 0.00 0.00 59 932.4
20260506104558 26 247 3.5 4.3 0.00 0.00 0.00 62 932.6
20260506103056 25 247 2.6 5.2 0.00 0.00 0.00 62 932.7
20260506101537 24 252 3.5 5.2 0.00 0.00 0.00 61 932.8
20260506100037 26 264 3.5 4.3 0.00 0.00 0.00 60 932.9
20260506094513 26 273 3.5 4.3 0.00 0.00 0.00 60 933.0
20260506093013 26 273 3.5 4.3 0.00 0.00 0.00 59 932.9
20260506091552 27 273 3.5 5.2 0.00 0.00 0.00 57 933.1
20260506090050 28 235 5.2 7.8 0.00 0.00 0.00 55 933.2
20260506084532 30 205 5.2 7.0 0.00 0.00 0.00 53 933.2
20260506083031 27 200 3.5 5.2 0.00 0.00 0.00 54 933.3
20260506081514 27 36 0.0 0.0 0.00 0.00 0.00 54 933.4
20260506073055 29 36 0.9 2.6 0.00 0.00 0.00 55 933.6
20260506071541 28 36 1.7 2.6 0.00 0.00 0.00 56 933.8
20260506061556 28 68 2.6 3.5 0.00 0.00 0.00 54 933.9
20260506060117 29 68 2.6 4.3 0.00 0.00 0.00 53 933.9